Showing default

NOAA 20, 43013

Orbit data source: Space-Track

NOAA 20, 43013 is an American payload satellite in SSO that was launched on Sat, 18 Nov 2017 UTC via a DELTA 7920-10C launch vehicle from the Air Force Western Test Range (AFWTR). Payload-class satellites include a variety of spacecraft equipped with specific instruments for various scientific and technological missions. These include communications satellites like Starlink; space stations such as the ISS; scientific satellites like the Hubble; Earth observation satellites from companies like Planet Labs, Umbra, and HawkEye 360; GPS; miniature CubeSats for education and research; and military/defense satellites.

Loading next visibility...
Identifier
43013, 2017-073A
Orbit
SSO
Country
Flag of USUS
Related business
Manufacturer
Ball
Mission
Operational Civil Weather
Bus & Motor
BCP-2000, AOCS
Mass
2,220 kg wet, ~1,400 kg dry
Launch date (UTC)
2017-11-18 (9 years ago)
Launch vehicle
DELTA 7920-10C
Launch site
Air Force Western Test Range (AFWTR)
Object type
Payload
Rocket body
Debris
Shape & HBR
Box + 1 Pan, 5.4 m
Radar Cross Section
8.434 m², Large (>1 m²)

Expand to show TLE details & history
Last TLE update: 11 hours ago

TLE from 11 hours ago
0 NOAA 20
1 43013U 17073A   26267.24559523  .00000031  00000-0  35684-4 0  9991
2 43013  98.7830 205.8481 0001195  38.7721 321.3540 14.19527363458523
Epoch: 2026-09-24T05:53Z
TLE epoch observation values (Epoch: 2026-09-24T05:53:39.427Z)
Latitude
-0.0001°
Longitude
114.34871°
Altitude
829.191 km
Speed
7.439 km/s
True Right ascension
13h 43m 23s
True Declination
0° 00' 00"
Sunlit
Object was in daylight at epoch
Visualization orbit readout
Latitude
Unknown
Longitude
Unknown
Altitude
Unknown
Speed
Unknown
Apparent Right ascension
Unknown
Apparent Declination
Unknown
Sunlit
N/A
Visualization observer readout
Local Sidereal Time
10:03:57
Azimuth
Unknown
Elevation
Unknown
Doppler factor
Unknown
Orbital elements
Apogee altitude
824.975 km
Perigee altitude
823.254 km
Semi-major axis
7,202.251 km
Eccentricity
0.00012
Inclination
98.783°
RAAN
205.8481°
Arg. of periapsis
38.7721°
True anomaly
321.34545°
Mean anomaly
321.354°
Eccentric anomaly
321.34972°
Mean motion
3.55092 °/min
Orbital period
101.38 mins
BSTAR
0.000035684
Loading maneuver chart data...
Computing Atmospheric mass density...
Loading historical data...
Loading historical data...
Loading historical data...
Loading historical data...
Loading historical data...
Loading historical data...
Loading historical data...

Documentation

Showing up to 5 results
|